www.pogodaiklimat.ru

Погода и климат >> Архив погоды >> Индия >> Махараштра >> Солапур


ПОГОДА в Солапуре

  • Прогноз погоды в Солапуре
  • Монитор погоды в Солапуре

АРХИВ ПОГОДЫ в Солапуре

Время (UTC), дата Ветер
(напр.,м/с)
 
Видим.   Явления Облачность Т
(С)
Тd
(С)
f
(%)
Тe
(С)
Тes
(С)
Комфортность P
(гПа)
Po
(гПа)
Тmin
(С)
Tmax
(С)
R
(мм)
R24
(мм)
S
(см)
03 12.03 СВ 1 10 км 4/3 600 м
[Sc Ac trans]
+24.6 +7.1 33 +21.6
06 12.03 ЮВ 1 10 км 3/3 600 м
[Sc]
+35.6 +11.6 23 +35 +50 очень
жарко
1011.9 959.6
09 12.03 ЮЗ 1 10 км 5/4 600 м
[Sc diur, vesp Ci fib]
+37.8 +11.4 21 +37 +48 очень
жарко
1007.9 956.2
12 12.03 ЮЗ 2 10 км 6/5 600 м
[Cb calv Ci fib]
+38.4 +11.8 20 +38 +38 очень
жарко
1006.6 955.1 +39.6
15 12.03 В 1 4000 м 5/3 600 м
[Sc diur, vesp Ac trans]
+33.0 +8.7 22 +32 +32 жарко 1009.1 956.6
18 12.03 Ю 1 4000 м 4/1 600 м
[Sc Ac trans]
+29.0 +15.3 43 +32 +32 душно 1011.7 994.1
21 12.03 В 1 4000 м 6/4 600 м
[Sc diur, vesp Ac trans]
+29.0 +6.1 23 +28 +28 жарко 1010.2 956.9
00 13.03 С 1 4000 м ясно +26.4 +5.0 25 +26 +26 жарко 1010.5 956.8
03 13.03 З 1 10 км 6/4 600 м
[Sc Ac trans]
+26.8 +6.9 28 +26 +29 жарко 1013.3 959.5 +23.1
06 13.03 С 1 10 км ясно +33.8 +9.6 23 +33 +54 опасность
солнечного
удара
1012.8 960.2
09 13.03 В 1 10 км ясно +37.0 +7.7 17 +35 +52 опасность
солнечного
удара
1008.9 957.0
12 13.03 Ю 1 10 км 3/3 600 м
[Sc diur, vesp]
+36.8 +9.0 18 +35 +36 очень
жарко
1007.9 956.0 +38.9
15 13.03 ЮЗ 1 4000 м 4/3 600 м
[Sc Ac trans]
+32.4 +7.7 22 +31 +31 жарко 1010.7 958.0
18 13.03 Ю 1 4000 м ясно +29.6 +6.6 23 +28 +28 жарко 1012.5 959.2
21 13.03 СЗ 1 4000 м ясно +26.2 +5.3 26 +25 +25 комфорт 1011.8 958.0
00 14.03 штиль 0 4000 м 1/1 600 м
[Sc]
+23.4 +4.5 29 +23 +23 комфорт 1012.8 958.4
03 14.03 СЗ 1 10 км 3/0
[Ac trans]
+26.0 +7.2 30 +26 +31 жарко 1014.8 960.8 +21.6
06 14.03 СВ 1 10 км 3/0
[Ci fib]
+33.8 +9.1 22 +33 +53 опасность
солнечного
удара
1013.2 960.6
09 14.03 СВ 1 10 км 4/3 600 м
[Sc diur, vesp Ac trans]
+38.0 +9.6 18 +36 +47 очень
жарко
1008.2 956.5
12 14.03 ЮВ 1 10 км 3/3 600 м
[Sc diur, vesp]
+37.4 +10.7 20 +36 +37 очень
жарко
1006.9 955.2 +38.9
15 14.03 С 1 4000 м 5/1 600 м
[Sc Ac lent]
+32.2 +9.5 25 +32 +32 жарко 1010.1 957.4
18 14.03 СВ 1 4000 м 5/4 600 м
[Sc Ac trans]
+29.6 +9.4 28 +29 +29 жарко 1011.9 958.6
21 14.03 С 1 4000 м 1/0
[Ac trans]
+26.8 +8.5 31 +27 +27 жарко 1011.3 957.6
00 15.03 С 1 4000 м 1/0
[Ac trans]
+23.4 +6.3 33 +24 +24 комфорт 1012.1 957.7
03 15.03 В 2 10 км ясно +25.4 +7.5 32 +25 +31 комфорт 1014.6 960.5 +21.6
06 15.03 С 1 10 км ясно +35.8 +8.9 19 +34 +56 опасность
солнечного
удара
1012.4 960.2
09 15.03 С 1 10 км 4/1 600 м
[Sc Ci fib]
+38.4 +11.4 20 +38 +52 опасность
солнечного
удара
1008.2 956.6
12 15.03 З 1 10 км 1/1 600 м
[Sc]
+38.0 +9.6 18 +36 +38 очень
жарко
1006.4 954.8 +39.1
15 15.03 штиль 0 4000 м 3/3 600 м
[Sc]
+32.4 +8.8 23 +31 +31 жарко 1009.1 956.5
18 15.03 штиль 0 4000 м 4/0
[Ac trans]
+29.4 +8.0 26 +29 +29 жарко 1011.4 958.1
21 15.03 штиль 0 4000 м 3/0
[Ac trans]
+27.2 +7.0 28 +27 +27 жарко 1010.3 956.7
00 16.03 Ю 1 4000 м 3/0
[Ac trans]
+25.6 +6.0 28 +25 +25 комфорт 1010.7 956.8
03 16.03 Ю 1 10 км ясно +27.0 +6.7 28 +27 +33 жарко 1012.9 959.1 +24.0
06 16.03 Ю 2 10 км ясно +35.0 +9.6 21 +34 +54 опасность
солнечного
удара
1012.2 959.8
09 16.03 Ю 2 10 км ясно +38.8 +11.0 19 +38 +52 опасность
солнечного
удара
1007.3 955.8
12 16.03 Ю 1 10 км 1/1 600 м
[Sc]
+37.6 +8.8 17 +36 +37 очень
жарко
1006.4 954.8 +39.3
15 16.03 ЮВ 1 4000 м 5/5 600 м
[Sc]
+33.2 +8.6 22 +32 +32 жарко 1009.0 956.5
18 16.03 ЮВ 1 4000 м 5/5 600 м
[Sc]
+30.4 +6.4 22 +29 +29 жарко 1010.2 957.2
21 16.03 ЮВ 1 4000 м 3/3 600 м
[Sc]
+28.8 +6.4 24 +28 +28 жарко 1010.0 956.7
00 17.03 штиль 0 4000 м ясно +25.2 +6.4 30 +25 +25 комфорт 1011.4 957.4
03 17.03 Ю 1 10 км ясно +27.6 +8.7 30 +27 +34 жарко 1013.2 959.5 +24.1
06 17.03 Ю 2 10 км ясно +35.8 +11.5 23 +35 +56 опасность
солнечного
удара
1011.8 959.6
09 17.03 ЮЗ 2 10 км ясно +38.0 +9.6 18 +36 +52 опасность
солнечного
удара
1007.3 955.7
12 17.03 Ю 1 10 км ясно +37.0 +8.8 18 +35 +37 очень
жарко
1005.7 954.0 +39.3
15 17.03 ЮВ 1 4000 м ясно +33.2 +8.0 21 +32 +32 жарко 1008.4 955.9
18 17.03 ЮВ 1 4000 м ясно +30.2 +7.7 24 +29 +29 жарко 1009.9 956.8
21 17.03 СВ 1 4000 м ясно +26.6 +7.6 30 +26 +26 жарко 1009.5 955.8
00 18.03 СВ 1 4000 м ясно +24.6 +7.1 33 +25 +25 комфорт 1010.0 956.0
03 18.03 СВ 1 10 км ясно +26.2 +8.5 33 +26 +33 жарко 1012.2 958.3 +22.9
06 18.03 Ю 1 10 км ясно +35.4 +12.3 25 +35 +58 опасность
солнечного
удара
1010.9 958.7
09 18.03 С 2 10 км ясно +38.6 +11.7 20 +38 +54 опасность
солнечного
удара
1006.7 955.2
12 18.03 ЮЗ 1 10 км ясно +37.2 +9.2 18 +35 +37 очень
жарко
1005.8 954.1 +39.1
15 18.03 штиль 0 4000 м ясно +31.6 +6.8 21 +30 +30 жарко 1008.6 955.9
18 18.03 СЗ 1 4000 м ясно +30.2 +5.4 21 +29 +29 жарко 1009.1 956.1
21 18.03 С 1 4000 м ясно +26.6 +6.6 28 +26 +26 жарко 1009.0 955.4
00 19.03 СВ 1 4000 м ясно +23.8 +6.4 33 +24 +24 комфорт 1009.1 955.0

 

Местоположение метеостанции Солапур (Махараштра, Индия): широта 17.67 долгота 75.90 высота над уровнем моря 479 м.

В архиве по умолчанию представлена погода в Солапуре за последнюю неделю. Архивные данные за месяц целиком и за предыдущие месяцы, начиная с января 2011 года, Вы можете получить, выбрав интересующий диапазон дат из раскрывающегося списка и нажав кнопку "Ввод!".


*Определитесь, кто Вы:
робот инопланетянин человек

Внимание! Время в таблицах - всемирное. Для получения местного времени необходимо прибавить поправку, которая равна 5.5 ч.

Смотрите также архив погоды в соседних городах и на ближайших метеорологических станциях:

Погода в Османабаде (Махараштра, Индия) (59 км)
Погода в Биджапуре (Карнатака, Индия) (96 км)
Погода в Джере (Махараштра, Индия) (102 км)
Погода в Гулбарге (Карнатака, Индия) (107 км)
Погода в Багалкоте (Карнатака, Индия) (109 км)
Погода в Аджере (Махараштра, Индия) (137 км)
Погода в Сангли (Махараштра, Индия) (165 км)
Погода в Бидаре (Карнатака, Индия) (175 км)
Погода в Парбхани (Махараштра, Индия) (190 км)
Погода в Ахмеднагаре (Махараштра, Индия) (195 км)

Пояснения к столбцам:

Ветер - указаны скорость ветра в м/с - средняя за 10 мин, порывы в срок и между сроками (в фигурных скобках) и направление, откуда дует ветер: С - северный, СВ - северо-восточный, В - восточный, ЮВ - юго-восточный, Ю - южный, ЮЗ - юго-западный, З - западный, СЗ - северо-западный.
Видимость - горизонтальная дальность видимости в метрах или километрах. При видимости от 1 до 10 км при отсутствии осадков обычно наблюдается дымка, при ухудшении видимости до 1 км и менее - туман. В сухую погоду видимость может ухудшаться дымом, пылью или мглою.
Явления - указаны атмосферные явления, наблюдавшиеся в срок или в последний час перед сроком; фигурными скобками обозначены явления, наблюдавшиеся между сроками (за 1-3 часа до срока); квадратными скобками обозначены град или гололедные отложения с указанием их диаметра в мм.
Облачность - указаны через наклонную черту общая и нижняя облачность в баллах и высота нижней границы облаков в метрах; квадратными скобками обозначены формы облаков: Ci - перистые, Cs - перисто-слоистые, Cc - перисто-кучевые, Ac - высококучевые, As - высокослоистые, Sc - слоисто-кучевые, Ns - слоисто-дождевые, Cu - кучевые, Cb - кучево-дождевые. Подробнее классификацию облаков см. в Атласе облаков (PDF).
T - Температура воздуха - температура, измеренная на высоте 2 м над землей.
Td - Температура точки росы - температура, при понижении до которой содержащийся в воздухе водяной пар достигнет насыщения.
f - Относительная влажность воздуха - влажноcть воздуха, измеренная на высоте 2 м над землей.
Te - Эффективная температура - температура, которую ощущает одетый по сезону человек в тени. Характеристика душности погоды. При расчете учитывается влияние влажности воздуха и скорости ветра на теплоощущения человека.
Tes - Эффективная температура на солнце - температура, которую ощущает человек, с поправкой на солнечный нагрев. Характеристика знойности погоды. Зависит от высоты солнца над горизонтом, облачности и скорости ветра. Ночью, в пасмурную погоду, а также при ветре 12 м/с и более поправка равна нулю.
P - Атмосферное давление - приведенное к уровню моря атмосферное давление.
Po - Атмосферное давление - измеренное на уровне метеостанции атмосферное давление.
Tmin - Минимальная температура - минимум температуры воздуха на высоте 2 м над землей.
Tmax - Максимальная температура - максимум температуры воздуха на высоте 2 м над землей.
R - Количество осадков - Количество выпавших осадков за период времени, мм. При наведении курсора мыши на число - период времени, за который выпало указанное количество осадков.
R24 - Количество осадков - Количество выпавших осадков за 24 часа, мм.
S - Снежный покров - Высота снежного покрова, см. При наведении курсора мыши на число - состояние снежного покрова и степень покрытия местности в баллах.